EW1541 Weather Reports


Display with metric or nautical units.
time (UTC)temp
F
wind
direction
speed
MPH
gust
MPH
rain 1hr
in
rain 24hr
in
rain mn
in
humidity
%
barometer
mb
20260504020001 0 306 1.0 14.0 0.01 0.01 0.01 1003.4
20260504014602 0 294 7.0 11.0 0.00 0.00 0.00 1003.0
20260504013103 0 324 5.0 7.0 0.00 0.00 0.00 1002.9
20260504011549 0 164 2.0 6.0 0.00 0.00 0.00 1002.7
20260504010051 0 266 0.0 6.0 0.00 0.00 0.00 1002.6
20260504004540 0 266 0.0 8.0 0.00 0.00 0.00 1002.6
20260504003037 0 210 5.0 16.0 0.00 0.00 0.00 1002.3
20260504001533 0 180 10.0 19.0 0.00 0.00 0.00 1002.1
20260504000038 0 173 9.0 16.0 0.00 0.00 0.00 1001.9
20260503234521 0 192 10.0 20.0 0.00 0.00 0.00 1001.7
20260503233020 0 180 8.0 16.0 0.00 0.00 0.00 1001.6
20260503231512 0 183 8.0 22.0 0.00 0.00 0.00 1001.9
20260503230008 0 203 4.0 16.0 0.00 0.00 0.00 1002.2
20260503224503 0 169 12.0 23.0 0.00 0.00 0.00 1002.2
20260503223059 0 207 13.0 24.0 0.00 0.00 0.00 1002.4
20260503221600 0 182 12.0 19.0 0.00 0.00 0.00 1002.8
20260503214545 0 190 10.0 16.0 0.00 0.00 0.00 1003.0
20260503213041 0 176 10.0 15.0 0.00 0.00 0.00 1003.5
20260503211537 0 183 9.0 14.0 0.00 0.00 0.00 1003.7
20260503210044 0 238 5.0 15.0 0.00 0.00 0.00 1004.0
20260503204528 0 184 11.0 18.0 0.00 0.00 0.00 1004.1
20260503203023 0 194 9.0 15.0 0.00 0.00 0.00 1004.3
20260503201524 0 259 2.0 8.0 0.00 0.00 0.00 1004.5
20260503200016 0 187 9.0 18.0 0.00 0.00 0.00 1004.6
20260503194509 0 186 11.0 19.0 0.00 0.01 0.00 1004.7
20260503193006 0 202 3.0 13.0 0.00 0.01 0.00 1005.0
20260503191502 0 279 6.0 8.0 0.00 0.01 0.00 1005.1
20260503184555 0 254 2.0 6.0 0.00 0.02 0.00 1005.7
20260503183057 0 254 1.0 4.0 0.00 0.02 0.00 1006.0
20260503181544 0 260 5.0 8.0 0.00 0.02 0.00 1006.1
20260503180039 0 260 3.0 8.0 0.00 0.02 0.00 1006.2
20260503174535 0 325 0.0 8.0 0.00 0.02 0.00 1006.2
20260503173044 0 325 0.0 6.0 0.00 0.02 0.00 1006.5
20260503171526 0 325 2.0 7.0 0.00 0.02 0.00 1006.7
20260503090106 0 321 5.0 8.0 0.00 0.16 0.00 1010.8
20260503081556 0 286 3.0 6.0 0.00 0.20 0.00 1011.2
20260503071536 0 281 2.0 6.0 0.00 0.24 0.00 1011.4
20260503054502 0 281 0.0 0.0 0.00 0.30 0.00 1012.2
20260503053059 0 281 0.0 4.0 0.00 0.30 0.00 1012.2
20260503051554 0 281 1.0 5.0 0.00 0.30 0.00 1012.3
20260503050049 0 281 1.0 4.0 0.00 0.30 0.00 1012.4
20260503044547 0 281 3.0 5.0 0.00 0.31 0.00 1012.5
20260503043041 0 281 3.0 6.0 0.00 0.31 0.00 1012.5
20260503041539 0 281 2.0 5.0 0.00 0.31 0.00 1012.5
20260503040031 0 281 0.0 2.0 0.00 0.31 0.00 1012.4
20260503034527 0 281 2.0 4.0 0.00 0.32 0.00 1012.4
20260503033022 0 281 0.0 0.0 0.00 0.32 0.00 1012.5
20260503031518 0 281 0.0 0.0 0.00 0.32 0.00 1012.6
20260503030017 0 281 0.0 0.0 0.00 0.32 0.00 1012.5
20260503024509 0 281 0.0 0.0 0.00 0.33 0.00 1012.6
20260503023005 0 281 0.0 0.0 0.00 0.33 0.00 1012.7
20260503021605 0 281 0.0 1.0 0.00 0.33 0.00 1012.7